Weather History for Ft Lauderdale, FL

Change the Weather History Date:

Wednesday, December 21, 2011

  Actual Average Record
Temperature  
Mean Temperature 76 °F 70 °F  
Max Temperature 80 °F 77 °F 86 °F (1948)
Min Temperature 72 °F 63 °F 34 °F (1943)
Degree Days  
Heating Degree Days 0 1  
Month to date heating degree days 0 16  
Since 1 July heating degree days 0 18  
Cooling Degree Days 11 6  
Month to date cooling degree days 195 158  
Year to date cooling degree days 4787 4671  
Growing Degree Days 26 (Base 50)    
Moisture  
Dew Point 64 °F    
Average Humidity 69    
Maximum Humidity 84    
Minimum Humidity 54    
Precipitation  
Precipitation 0.00 in 0.09 in 5.38 in (1994)
Month to date precipitation 1.33 1.82  
Year to date precipitation 40.62 61.54  
Snow  
Snow 0.00 in - - ()
Month to date snowfall 0.0  
Since 1 July snowfall 0.0  
Snow Depth 0.00 in    
Sea Level Pressure  
Sea Level Pressure 30.12 in    
Wind  
Wind Speed 13 mph (SE)    
Max Wind Speed 21 mph    
Max Gust Speed 28 mph    
Visibility 10 miles    
Events      
T = Trace of Precipitation, MM = Missing Value Source: NWS Daily Summary

Daily Weather History Graph

Daily Weather History Graph

Search for Another Location

Airport:

Trip Planner

Search our weather history database for the weather conditions in past years. The results will help you decide how hot, cold, wet, or windy it might be!

Date:

Astronomy

Dec. 21, 2011 Rise Set
Actual Time 7:03 AM EST 5:33 PM EST
Civil Twilight 6:38 AM EST 5:59 PM EST
Nautical Twilight 6:09 AM EST 6:27 PM EST
Astronomical Twilight 5:41 AM EST 6:56 PM EST
Moon 3:41 AM EST (12/21) 2:47 PM EST (12/21)
Length of Visible Light 11h 21m
Length of Day
10h 30m
Waning Crescent, 12% of the Moon is Illuminated
Dec 21
Waning Crescent
Dec 24
New
Jan 1
First Quarter
Jan 9
Full
Jan 16
Last Quarter

Hourly Weather History & Observations

Time (EST) Temp. Heat Index Dew Point Humidity Pressure Visibility Wind Dir Wind Speed Gust Speed Precip Events Conditions
12:53 AM 73.0 °F - 60.1 °F 64% 30.14 in 10.0 mi ESE 15.0 mph 21.9 mph N/A   Scattered Clouds
1:53 AM 73.0 °F - 62.1 °F 68% 30.12 in 10.0 mi SE 15.0 mph - N/A   Scattered Clouds
2:53 AM 73.0 °F - 62.1 °F 68% 30.10 in 10.0 mi SE 17.3 mph 26.5 mph N/A   Scattered Clouds
3:53 AM 73.0 °F - 62.1 °F 68% 30.10 in 10.0 mi SE 15.0 mph 23.0 mph N/A   Scattered Clouds
4:53 AM 73.0 °F - 62.1 °F 68% 30.10 in 10.0 mi SE 13.8 mph - N/A   Scattered Clouds
5:53 AM 73.0 °F - 63.0 °F 71% 30.11 in 10.0 mi SE 12.7 mph - N/A   Scattered Clouds
6:53 AM 73.9 °F - 63.0 °F 68% 30.13 in 10.0 mi SE 16.1 mph 21.9 mph N/A   Mostly Cloudy
7:53 AM 73.9 °F - 63.0 °F 68% 30.14 in 10.0 mi SSE 13.8 mph - N/A   Scattered Clouds
8:53 AM 75.9 °F - 63.0 °F 64% 30.16 in 10.0 mi SE 15.0 mph 24.2 mph N/A   Mostly Cloudy
9:53 AM 78.1 °F - 63.0 °F 60% 30.17 in 10.0 mi SSE 17.3 mph 23.0 mph N/A   Partly Cloudy
10:53 AM 79.0 °F - 63.0 °F 58% 30.17 in 10.0 mi SE 16.1 mph - N/A   Partly Cloudy
11:53 AM 80.1 °F 81.5 °F 63.0 °F 56% 30.14 in 10.0 mi SSE 15.0 mph 21.9 mph N/A   Scattered Clouds
12:53 PM 79.0 °F - 64.0 °F 60% 30.12 in 10.0 mi SE 18.4 mph 26.5 mph N/A   Scattered Clouds
1:53 PM 78.1 °F - 64.9 °F 64% 30.09 in 10.0 mi SE 16.1 mph 19.6 mph N/A   Scattered Clouds
2:53 PM 78.1 °F - 64.0 °F 62% 30.09 in 10.0 mi SE 10.4 mph - N/A   Scattered Clouds
3:53 PM 77.0 °F - 64.0 °F 64% 30.08 in 10.0 mi SE 11.5 mph - N/A   Partly Cloudy
4:53 PM 75.9 °F - 64.0 °F 67% 30.08 in 10.0 mi SSE 5.8 mph - N/A   Partly Cloudy
5:53 PM 73.9 °F - 64.9 °F 73% 30.10 in 10.0 mi SE 5.8 mph - N/A   Scattered Clouds
6:53 PM 73.9 °F - 66.0 °F 76% 30.11 in 10.0 mi ESE 6.9 mph - N/A   Scattered Clouds
7:53 PM 73.0 °F - 66.0 °F 79% 30.12 in 10.0 mi ESE 4.6 mph - N/A   Partly Cloudy
8:53 PM 73.0 °F - 66.0 °F 79% 30.13 in 10.0 mi ESE 8.1 mph - N/A   Partly Cloudy
9:53 PM 73.0 °F - 66.9 °F 81% 30.13 in 10.0 mi ESE 6.9 mph - N/A   Scattered Clouds
10:53 PM 73.9 °F - 68.0 °F 82% 30.12 in 10.0 mi SE 13.8 mph - N/A   Scattered Clouds
11:53 PM 73.9 °F - 66.9 °F 79% 30.11 in 10.0 mi SE 11.5 mph - N/A   Scattered Clouds